Regional Weather Roundup
Issued by NWS

Home | Current Version | Previous Version | Text Only | Print | Product List | Glossary On
Versions: 1 2 3 4 5 6 7 8 9 10 11 12 13 14 15 16 17 18 19 20 21 22 23 24 25 26 27 28
000
ASUS45 KREV 261010
RWRNV
NEVADA REGIONAL WEATHER ROUNDUP
NATIONAL WEATHER SERVICE RENO NV
200 AM PST SUN FEB 26 2017

NOTE: "FAIR" INDICATES FEW OR NO CLOUDS BELOW 12,000 FEET WITH NO
SIGNIFICANT WEATHER AND/OR OBSTRUCTIONS TO VISIBILITY.

NVZ001-003-004-261100-
WESTERN NEVADA

CITY           SKY/WX    TMP DP  RH WIND       PRES   REMARKS
RENO           PTCLDY    27  21  78 CALM      29.95F
CARSON CITY    CLOUDY    28  23  80 CALM      29.96F
MINDEN         FAIR      25  23  93 S5        29.95F
PYRAMID LAKE     N/A     32 N/A N/A S7          N/A
FALLON         CLEAR     25  21  85 CALM      29.96F
LOVELOCK         N/A     22  19  89 NW5       29.95F
HAWTHORNE      CLOUDY    32  18  55 CALM      29.96F
$$

NVZ002-CAZ072-073-261100-
NORTHERN AND CENTRAL SIERRA

CITY           SKY/WX    TMP DP  RH WIND       PRES   REMARKS
S. LAKE TAHOE  CLEAR     13   9  84 S3        29.89F
TRUCKEE        FOG       10   9  92 CALM      29.92F VSB 1/4
SQUAW VLY 8000   N/A     14  14 100 SW2         N/A
SUSANVILLE     CLEAR    N/A N/A N/A W3        29.97F
MAMMOTH LAKES  FAIR      10   2  69 NW3       29.88F
BRIDGEPORT       N/A     16   9  74 CALM      29.88F
$$

NVZ030-031-036-261100-
NORTHERN NEVADA

CITY           SKY/WX    TMP DP  RH WIND       PRES   REMARKS
ELKO           CLEAR     18  13  80 CALM      29.92F
WINNEMUCCA     NOT AVBL
WENDOVER       CLEAR     21  12  68 W3        29.96F
$$

NVZ035-037-261100-
CENTRAL NEVADA

CITY           SKY/WX    TMP DP  RH WIND       PRES   REMARKS
ELY            CLEAR      5   2  87 S10       29.91F WCI -10
EUREKA           N/A     13   8  81 S6        29.91F
$$

NVZ013-014-261100-
SOUTH CENTRAL NEVADA

CITY           SKY/WX    TMP DP  RH WIND       PRES   REMARKS
TONOPAH        CLEAR     27  18  69 N9        29.90F
$$

NVZ017-020-022-261100-
SOUTHERN NEVADA

CITY           SKY/WX    TMP DP  RH WIND       PRES   REMARKS
LAS VEGAS      PTCLDY    42  23  46 CALM      29.90F
N. LAS VEGAS   CLEAR     39  24  55 CALM      29.91F
NELLIS AFB     PTCLDY    40  26  59 CALM      29.92S
HENDERSON      CLEAR     37  25  61 S7        29.92F
MERCURY        PTCLDY    35  20  54 NE5       29.90S
$$




USA.gov is the U.S. government's official web portal to all federal, state and local government web resources and services.